Home   Weather   Tallahassee   Past weeks
Flag for USA

Past Weather in Tallahassee, Florida, USA — Yesterday and Last 2 Weeks

Now
79 °F

Overcast.


Feels Like: 80 °F
Forecast: 78 / 60 °F
Wind: 12 mph from North

Location: Tallahassee Regional Airport

Current Time: Oct 22, 2019 at 4:33:28 pm

Latest Report: Oct 22, 2019 at 3:53 pm


Visibility: 10 mi

Pressure: 29.96 "Hg

Humidity: 44%

Dew Point: 55 °F

Location of TallahasseeLocation

Past Weather in Tallahassee — Graph

°F

Tallahassee Temperature Yesterday

Maximum temperature yesterday: 82 °F (at 2:29 pm)
Minimum temperature yesterday: 58 °F (at 5:53 am)
Average temperature yesterday: 71 °F

High & Low Weather Summary for the Past Weeks

 TemperatureHumidityPressure
High91 °F (Oct 8, 3:53 pm)100% (Oct 8, 4:53 am)30.11 "Hg (Oct 8, 4:53 am)
Low57 °F (Oct 17, 7:53 am)27% (Oct 10, 4:53 pm)29.52 "Hg (Oct 19, 3:53 pm)
Average73 °F74%29.94 "Hg
* Reported Oct 7 2:53 pm — Oct 22 2:53 pm, Tallahassee. Weather by CustomWeather, © 2019

Note: Actual official high and low records may vary slightly from our data, if they occured in-between our weather recording intervals... More about our weather records

Advertising

Tallahassee Weather History for the Previous 24 Hours

Scroll right to see more
 ConditionsComfort  
Time TempWeatherWind HumidityBarometerVisibility
2:53 pm
Tue, Oct 22
79 °FOvercast.14 mph50%29.95 "Hg10 mi
1:53 pm78 °FBroken clouds.12 mph58%29.96 "Hg10 mi
12:53 pm75 °FBroken clouds.16 mph64%29.98 "Hg10 mi
12:18 pm76 °FLight rain. Partly sunny.17 mph74%29.98 "Hg10 mi
11:53 am79 °FPartly sunny.9 mph79%29.97 "Hg10 mi
10:53 am74 °FPartly sunny.3 mph88%29.98 "Hg10 mi
9:53 am73 °FPartly sunny.3 mph88%29.98 "Hg10 mi
8:53 am71 °FPartly sunny.No wind93%29.96 "Hg10 mi
7:53 am70 °FPartly sunny.No wind97%29.94 "Hg10 mi
6:53 am70 °FPassing clouds.5 mph97%29.94 "Hg10 mi
5:53 am71 °FPassing clouds.No wind93%29.90 "Hg10 mi
4:53 am72 °FPassing clouds.5 mph93%29.89 "Hg10 mi
3:53 am73 °FPassing clouds.6 mph94%29.90 "Hg10 mi
3:32 am74 °FPassing clouds.5 mph91%29.92 "Hg10 mi
3:21 am74 °FLight rain. Mostly cloudy.3 mph91%29.93 "Hg10 mi
3:02 am74 °FMostly cloudy.No wind94%29.94 "Hg10 mi
2:38 am74 °FMostly cloudy.6 mph94%29.96 "Hg10 mi
1:25 am73 °FMostly cloudy.No wind90%29.96 "Hg10 mi
9:53 pm
Mon, Oct 21
74 °FMostly cloudy.No wind85%29.94 "Hg10 mi
9:34 pm74 °FPassing clouds.No wind85%29.95 "Hg10 mi
8:53 pm74 °FMostly cloudy.No wind82%29.93 "Hg10 mi
7:53 pm76 °FMostly cloudy.5 mph77%29.93 "Hg10 mi
6:53 pm77 °FOvercast.6 mph74%29.92 "Hg10 mi
5:53 pm79 °FCloudy.8 mph72%29.91 "Hg10 mi
4:53 pm81 °FPartly sunny.9 mph60%29.92 "Hg10 mi
Weather by CustomWeather, © 2019

See weather overview